Hobart, OK

4:18 AM CDT on August 28, 2016 (GMT -0500)
Hobart Municipal

Weather History for KHBR - January, 2014

Change the Weather History Date:

Monday, January 27, 2014

  Actual Average Record
Temperature  
Mean Temperature 26 °F -  
Max Temperature 35 °F 48 °F 75 °F (2015)
Min Temperature 17 °F 27 °F 10 °F (2009)
Degree Days  
Heating Degree Days 39    
Moisture  
Dew Point -6 °F    
Average Humidity 29    
Maximum Humidity 54    
Minimum Humidity 20    
Precipitation  
Precipitation 0.00 in - - ()
Sea Level Pressure  
Sea Level Pressure 30.36 in    
Wind  
Wind Speed 26 mph (NE)    
Max Wind Speed 37 mph    
Max Gust Speed 45 mph    
Visibility 10 miles    
Events      
Averages and records for this station are not official NWS values.
T = Trace of Precipitation, MM = Missing Value Source: NWS Daily Summary

Daily Weather History Graph

Daily Weather History Graph

Search for Another Location

Airport or City:

Trip Planner

Search our weather history database for the weather conditions in past years. The results will help you decide how hot, cold, wet, or windy it might be!

Date:

Astronomy

Jan. 27, 2014 Rise Set
Actual Time 7:38 AM CST 6:00 PM CST
Civil Twilight 7:11 AM CST 6:26 PM CST
Nautical Twilight 6:41 AM CST 6:57 PM CST
Astronomical Twilight 6:11 AM CST 7:27 PM CST
Moon 4:19 AM CST (1/27) 2:49 PM CST (1/27)
Length of Visible Light 11h 15m
Length of Day
10h 21m
Waning Crescent, 14% of the Moon is Illuminated
Jan 27
Waning Crescent
Jan 30
New
Feb 6
First Quarter
Feb 14
Full
Feb 22
Last Quarter

Hourly Weather History & Observations

Time (CST) Temp. Windchill Dew Point Humidity Pressure Visibility Wind Dir Wind Speed Gust Speed Precip Events Conditions
12:53 AM 35.1 °F 20.6 °F 19.9 °F 54% 30.06 in 10.0 mi NE 36.8 mph 44.9 mph N/A   Clear
1:53 AM 32.0 °F 18.4 °F 16.0 °F 52% 30.11 in 10.0 mi NE 26.5 mph 34.5 mph N/A   Clear
2:53 AM 28.0 °F 12.0 °F 3.0 °F 34% 30.17 in 10.0 mi NE 31.1 mph 39.1 mph N/A   Clear
3:53 AM 26.1 °F 8.6 °F -7.1 °F 23% 30.22 in 10.0 mi NNE 34.5 mph 44.9 mph N/A   Clear
4:53 AM 24.1 °F 7.4 °F -9.0 °F 23% 30.25 in 10.0 mi NE 27.6 mph 39.1 mph N/A   Clear
5:53 AM 21.9 °F 3.1 °F -9.9 °F 24% 30.30 in 10.0 mi NNE 33.4 mph 42.6 mph N/A   Clear
6:53 AM 19.9 °F 2.2 °F -11.0 °F 25% 30.35 in 10.0 mi NNE 26.5 mph 34.5 mph N/A   Clear
7:53 AM 19.0 °F 1.6 °F -11.9 °F 25% 30.38 in 10.0 mi NE 24.2 mph 34.5 mph N/A   Clear
8:53 AM 21.0 °F 5.4 °F -9.0 °F 26% 30.41 in 10.0 mi NE 20.7 mph 29.9 mph N/A   Clear
9:53 AM 24.1 °F 9.0 °F -8.0 °F 24% 30.44 in 10.0 mi NNE 21.9 mph 27.6 mph N/A   Clear
10:53 AM 23.0 °F 7.2 °F -8.0 °F 25% 30.45 in 10.0 mi NE 23.0 mph 28.8 mph N/A   Clear
11:53 AM 23.0 °F 8.0 °F -7.1 °F 27% 30.45 in 10.0 mi NE 20.7 mph 26.5 mph N/A   Clear
12:53 PM 26.1 °F 12.7 °F -8.0 °F 22% 30.43 in 10.0 mi NE 18.4 mph 28.8 mph N/A   Clear
1:53 PM 28.0 °F 15.3 °F -8.0 °F 21% 30.41 in 10.0 mi NNE 18.4 mph 25.3 mph N/A   Clear
2:53 PM 25.0 °F 9.9 °F -11.0 °F 20% 30.40 in 10.0 mi NE 23.0 mph 27.6 mph N/A   Mostly Cloudy
3:53 PM 24.1 °F 11.0 °F -9.9 °F 22% 30.40 in 10.0 mi NNE 16.1 mph - N/A   Overcast
4:53 PM 21.9 °F 6.9 °F -11.9 °F 22% 30.40 in 10.0 mi NE 19.6 mph - N/A   Overcast
5:53 PM 21.0 °F 6.6 °F -11.9 °F 23% 30.40 in 10.0 mi NE 17.3 mph - N/A   Overcast
6:53 PM 19.9 °F 4.3 °F -11.9 °F 24% 30.42 in 10.0 mi NE 19.6 mph - N/A   Overcast
7:53 PM 19.0 °F 3.2 °F -11.0 °F 26% 30.43 in 10.0 mi NE 19.6 mph - N/A   Partly Cloudy
8:53 PM 18.0 °F 2.2 °F -11.0 °F 27% 30.43 in 10.0 mi NE 18.4 mph - N/A   Mostly Cloudy
9:53 PM 18.0 °F 1.7 °F -8.0 °F 31% 30.45 in 10.0 mi NE 19.6 mph - N/A   Overcast
10:53 PM 17.1 °F 1.0 °F -2.0 °F 43% 30.46 in 10.0 mi NE 18.4 mph - N/A   Overcast
11:53 PM 17.1 °F 2.5 °F -0.0 °F 47% 30.48 in 10.0 mi NE 15.0 mph - N/A   Overcast